Weather History for KRKP - January, 2014

Change the Weather History Date:

Friday, January 10, 2014

  Actual Average Record
Temperature  
Mean Temperature 74 °F -  
Max Temperature 82 °F 61 °F 82 °F (2014)
Min Temperature 64 °F 44 °F 18 °F (1962)
Cooling Degree Days 9    
Growing Degree Days 24 (Base 50)    
Moisture  
Dew Point 63 °F    
Average Humidity 65    
Maximum Humidity 84    
Minimum Humidity 54    
Precipitation  
Precipitation 0.02 in - - ()
Sea Level Pressure  
Sea Level Pressure 29.93 in    
Wind  
Wind Speed 4 mph (SSE)    
Max Wind Speed 10 mph    
Max Gust Speed -    
Visibility 5 miles    
Events Rain    
Averages and records for this station are not official NWS values.
T = Trace of Precipitation, MM = Missing Value Source: NWS Daily Summary

Daily Weather History Graph

Daily Weather History Graph

Search for Another Location

Airport or City:

Trip Planner

Search our weather history database for the weather conditions in past years. The results will help you decide how hot, cold, wet, or windy it might be!

Date:

Astronomy

Jan. 10, 2014 Rise Set
Actual Time 7:21 AM CST 5:50 PM CST
Civil Twilight 6:55 AM CST 6:16 PM CST
Nautical Twilight 6:26 AM CST 6:45 PM CST
Astronomical Twilight 5:58 AM CST 7:13 PM CST
Moon 1:49 PM CST (1/10) 2:37 AM CST (1/10)
Length of Visible Light 11h 20m
Length of Day
10h 29m
Waxing Gibbous, 75% of the Moon is Illuminated
Jan 10
Waxing Gibbous
Jan 15
Full
Jan 23
Last Quarter
Jan 30
New
Feb 6
First Quarter

Hourly Weather History & Observations

Time (CST) Temp. Heat Index Dew Point Humidity Pressure Visibility Wind Dir Wind Speed Gust Speed Precip Events Conditions
12:09 AM 69.8 °F - 60.8 °F 73% 30.02 in 0.5 mi Calm Calm - N/A   Haze
12:13 AM 69.8 °F - 60.8 °F 73% 30.02 in 0.5 mi Calm Calm - N/A   Haze
12:53 AM 71.1 °F - 61.0 °F 70% 30.01 in 0.2 mi ESE 3.5 mph - N/A   Haze
1:21 AM 73.4 °F - 60.8 °F 65% 30.00 in 0.5 mi East 3.5 mph - N/A   Haze
1:32 AM 68.0 °F - 60.8 °F 78% 29.99 in 1.0 mi ESE 3.5 mph - N/A   Haze
1:37 AM 68.0 °F - 60.8 °F 78% 29.99 in 2.0 mi ESE 4.6 mph - N/A   Haze
1:40 AM 71.6 °F - 60.8 °F 69% 29.99 in 3.0 mi East 4.6 mph - N/A   Haze
1:45 AM 71.6 °F - 60.8 °F 69% 29.98 in 2.0 mi ESE 3.5 mph - N/A   Haze
1:53 AM 68.0 °F - 61.0 °F 78% 29.99 in 2.5 mi SE 3.5 mph - N/A   Haze
2:00 AM 68.0 °F - 60.8 °F 78% 29.98 in 5.0 mi SE 3.5 mph - N/A   Haze
2:53 AM 79.0 °F - 62.1 °F 56% 29.97 in 7.0 mi SSE 4.6 mph - N/A   Overcast
3:53 AM 79.0 °F - 63.0 °F 58% 29.95 in 7.0 mi SSE 6.9 mph - N/A   Overcast
4:53 AM 75.0 °F - 61.0 °F 62% 29.94 in 6.0 mi SE 8.1 mph - N/A   Haze
5:53 AM 80.1 °F 81.2 °F 62.1 °F 54% 29.93 in 9.0 mi SSE 10.4 mph - N/A   Overcast
6:53 AM 78.1 °F - 63.0 °F 60% 29.93 in 8.0 mi SSE 8.1 mph - N/A   Overcast
7:53 AM 77.0 °F - 63.0 °F 62% 29.94 in 7.0 mi SSE 6.9 mph - N/A   Overcast
8:53 AM 75.9 °F - 62.1 °F 62% 29.95 in 6.0 mi SE 5.8 mph - N/A   Haze
9:53 AM 81.0 °F 82.5 °F 64.0 °F 56% 29.96 in 2.5 mi South 3.5 mph - 0.00 in Rain Light Rain
10:02 AM 78.8 °F - 64.4 °F 61% 29.95 in 2.5 mi SE 4.6 mph - 0.00 in Rain Light Rain
10:09 AM 80.6 °F 82.3 °F 64.4 °F 58% 29.95 in 2.0 mi SSE 4.6 mph - 0.00 in Rain Light Rain
10:14 AM 78.8 °F - 64.4 °F 61% 29.95 in 2.5 mi South 3.5 mph - 0.00 in Rain Light Rain
10:18 AM 78.8 °F - 64.4 °F 61% 29.95 in 3.0 mi SSE 3.5 mph - 0.00 in Rain Light Rain
10:22 AM 78.8 °F - 64.4 °F 61% 29.95 in 2.5 mi South 4.6 mph - 0.00 in Rain Light Rain
10:31 AM 75.2 °F - 64.4 °F 69% 29.95 in 2.0 mi Variable 3.5 mph - 0.01 in Rain Light Rain
10:38 AM 82.4 °F 84.6 °F 66.2 °F 58% 29.95 in 2.5 mi South 5.8 mph - 0.02 in Rain Light Rain
10:46 AM 82.4 °F 84.6 °F 66.2 °F 58% 29.94 in 7.0 mi South 8.1 mph - 0.02 in   Overcast
10:53 AM 82.0 °F 84.1 °F 66.0 °F 58% 29.94 in 7.0 mi South 6.9 mph - 0.02 in   Overcast
11:01 AM 82.4 °F 84.6 °F 66.2 °F 58% 29.93 in 6.0 mi South 5.8 mph - N/A   Haze
11:19 AM 80.6 °F 82.7 °F 66.2 °F 61% 29.93 in 9.0 mi SSW 6.9 mph - 0.00 in   Overcast
11:45 AM 82.4 °F 84.6 °F 66.2 °F 58% 29.91 in 8.0 mi South 6.9 mph - 0.00 in   Overcast
11:53 AM 80.1 °F 82.1 °F 66.0 °F 62% 29.92 in 8.0 mi SSW 5.8 mph - 0.00 in   Overcast
12:01 PM 80.6 °F 82.3 °F 64.4 °F 58% 29.91 in 8.0 mi SSW 8.1 mph - N/A   Overcast
12:53 PM 82.9 °F 85.0 °F 66.0 °F 56% 29.88 in 8.0 mi Variable 5.8 mph - 0.00 in Rain Light Rain
1:17 PM 80.6 °F 82.7 °F 66.2 °F 61% 29.85 in 10.0 mi South 8.1 mph - 0.00 in   Overcast
1:53 PM 80.6 °F 82.7 °F 66.0 °F 61% 29.84 in 10.0 mi South 10.4 mph - 0.00 in   Overcast
2:53 PM 80.6 °F 82.7 °F 66.0 °F 61% 29.82 in 10.0 mi South 10.4 mph - N/A   Partly Cloudy
3:53 PM 80.6 °F 82.7 °F 66.0 °F 61% 29.82 in 10.0 mi SSE 6.9 mph - N/A   Scattered Clouds
4:53 PM 80.6 °F 82.4 °F 64.9 °F 59% 29.83 in 9.0 mi South 9.2 mph - N/A   Clear
5:53 PM 81.0 °F 82.7 °F 64.9 °F 58% 29.83 in 6.0 mi South 6.9 mph - N/A   Haze
6:53 PM 79.0 °F - 64.0 °F 60% 29.83 in 7.0 mi South 5.8 mph - N/A   Clear
7:53 PM 73.9 °F - 63.0 °F 68% 29.86 in 8.0 mi Variable 5.8 mph - N/A   Clear
8:53 PM 68.0 °F - 61.0 °F 78% 29.87 in 6.0 mi SSW 4.6 mph - N/A   Haze
9:53 PM 66.0 °F - 60.1 °F 81% 29.88 in 5.0 mi SSW 4.6 mph - N/A   Haze
10:53 PM 66.0 °F - 60.1 °F 81% 29.89 in 5.0 mi SSW 3.5 mph - N/A   Haze
11:53 PM 64.0 °F - 59.0 °F 84% 29.90 in 7.0 mi SW 3.5 mph - N/A   Clear